Weather History for Gwinn, MI

Change the Weather History Date:

Friday, December 7, 2012

  Actual Average (KESC) Record (KESC)
Temperature  
Mean Temperature 30 °F -  
Max Temperature 33 °F 30 °F 44 °F (1951)
Min Temperature 26 °F 16 °F -13 °F (1972)
Degree Days  
Heating Degree Days 35    
Moisture  
Dew Point 23 °F    
Average Humidity 75    
Maximum Humidity 82    
Minimum Humidity 64    
Precipitation  
Precipitation 0.00 in - - ()
Sea Level Pressure  
Sea Level Pressure 29.91 in    
Wind  
Wind Speed 5 mph (NW)    
Max Wind Speed 12 mph    
Max Gust Speed 16 mph    
Visibility 10 miles    
Events Snow    
Averages and records for this station are not official NWS values.
T = Trace of Precipitation, MM = Missing Value Source: NWS Daily Summary

Daily Weather History Graph

Daily Weather History Graph

Search for Another Location

Airport:

Trip Planner

Search our weather history database for the weather conditions in past years. The results will help you decide how hot, cold, wet, or windy it might be!

Date:

Astronomy

Dec. 07, 2012 Rise Set
Actual Time 8:19 AM EST 5:03 PM EST
Civil Twilight 7:44 AM EST 5:37 PM EST
Nautical Twilight 7:06 AM EST 6:15 PM EST
Astronomical Twilight 6:30 AM EST 6:52 PM EST
Moon 1:18 AM EST (12/7) 1:17 PM EST (12/7)
Length of Visible Light 9h 52m
Length of Day
8h 43m
Last Quarter, 39% of the Moon is Illuminated
Dec 7
Last Quarter
Dec 13
New
Dec 20
First Quarter
Dec 28
Full
Jan 4
Last Quarter

Hourly Weather History & Observations

Time (EST) Temp. Windchill Dew Point Humidity Pressure Visibility Wind Dir Wind Speed Gust Speed Precip Events Conditions
12:16 AM 34.3 °F 31.4 °F 29.3 °F 82% 29.81 in 10.0 mi WNW 3.5 mph - N/A   Overcast
12:36 AM 34.2 °F 27.5 °F 28.8 °F 81% 29.80 in 10.0 mi WNW 8.1 mph - N/A   Overcast
12:56 AM 33.8 °F 25.3 °F 27.5 °F 78% 29.81 in 10.0 mi West 11.5 mph - N/A   Overcast
1:16 AM 33.3 °F 26.4 °F 26.6 °F 77% 29.81 in 10.0 mi WNW 8.1 mph - N/A   Overcast
1:35 AM 32.9 °F 25.9 °F 26.2 °F 76% 29.82 in 10.0 mi WNW 8.1 mph - N/A   Overcast
1:56 AM 32.5 °F 27.1 °F 26.4 °F 78% 29.82 in 10.0 mi WNW 5.8 mph - N/A   Overcast
2:16 AM 32.0 °F 23.0 °F 25.9 °F 78% 29.82 in 10.0 mi WNW 11.5 mph - N/A   Overcast
2:35 AM 31.5 °F 22.9 °F 24.1 °F 74% 29.84 in 10.0 mi WNW 10.4 mph 16.1 mph N/A   Scattered Clouds
2:56 AM 30.7 °F 26.0 °F 23.9 °F 76% 29.84 in 10.0 mi West 4.6 mph - N/A   Scattered Clouds
3:16 AM 30.2 °F 24.3 °F 23.7 °F 77% 29.85 in 10.0 mi WNW 5.8 mph - N/A   Clear
3:35 AM 29.3 °F - 23.7 °F 80% 29.85 in 10.0 mi Calm Calm - N/A   Clear
3:56 AM 29.3 °F 23.2 °F 23.4 °F 78% 29.86 in 10.0 mi WNW 5.8 mph - N/A   Clear
4:16 AM 28.8 °F 22.6 °F 22.8 °F 78% 29.87 in 10.0 mi WNW 5.8 mph - N/A   Clear
4:36 AM 28.0 °F 24.2 °F 22.3 °F 79% 29.87 in 10.0 mi WNW 3.5 mph - N/A   Scattered Clouds
4:56 AM 27.5 °F 23.6 °F 22.1 °F 80% 29.87 in 10.0 mi WNW 3.5 mph - N/A   Scattered Clouds
5:16 AM 27.7 °F 23.8 °F 22.3 °F 80% 29.87 in 10.0 mi NW 3.5 mph - N/A   Mostly Cloudy
5:36 AM 28.0 °F - 22.6 °F 80% 29.87 in 10.0 mi Calm Calm - N/A   Overcast
5:56 AM 28.4 °F - 22.8 °F 80% 29.89 in 10.0 mi Calm Calm - N/A   Overcast
6:50 AM 28.4 °F 22.2 °F 23.0 °F 80% 29.90 in 10.0 mi WNW 5.8 mph - N/A   Overcast
7:50 AM 28.4 °F 23.3 °F 23.0 °F 80% 29.92 in 10.0 mi NW 4.6 mph - N/A   Overcast
8:50 AM 28.4 °F 22.2 °F 23.0 °F 80% 29.92 in 10.0 mi NW 5.8 mph - N/A   Overcast
9:50 AM 30.2 °F 22.6 °F 23.0 °F 75% 29.94 in 10.0 mi NNW 8.1 mph - N/A   Overcast
10:50 AM 30.2 °F 23.4 °F 21.2 °F 69% 29.96 in 10.0 mi NW 6.9 mph - N/A   Overcast
11:50 AM 30.2 °F 26.7 °F 21.2 °F 69% 29.96 in 10.0 mi North 3.5 mph - N/A   Overcast
12:50 PM 30.2 °F 25.4 °F 21.2 °F 69% 29.95 in 10.0 mi NNW 4.6 mph - N/A   Overcast
1:50 PM 30.2 °F 26.7 °F 21.2 °F 69% 29.95 in 10.0 mi NNW 3.5 mph - N/A   Overcast
2:50 PM 30.2 °F 26.7 °F 19.4 °F 64% 29.95 in 10.0 mi NNW 3.5 mph - N/A   Overcast
3:50 PM 30.2 °F - 21.2 °F 69% 29.96 in 10.0 mi Calm Calm - N/A   Overcast
4:50 PM 30.2 °F - 21.2 °F 69% 29.97 in 10.0 mi Calm Calm - N/A   Overcast
5:50 PM 30.2 °F - 21.2 °F 69% 29.97 in 10.0 mi Calm Calm - N/A   Overcast
6:50 PM 28.4 °F - 21.2 °F 74% 29.97 in 10.0 mi Calm Calm - N/A   Overcast
7:50 PM 28.4 °F - 21.2 °F 74% 29.99 in 10.0 mi Calm Calm - N/A   Overcast
8:50 PM 28.4 °F 21.2 °F 19.4 °F 69% 29.99 in 10.0 mi NNW 6.9 mph - N/A   Overcast
9:50 PM 26.6 °F 20.0 °F 19.4 °F 74% 29.99 in 10.0 mi NW 5.8 mph - N/A   Overcast
10:15 PM 27.5 °F 20.2 °F 19.0 °F 71% 30.00 in 10.0 mi NW 6.9 mph - N/A   Overcast
10:36 PM 27.3 °F 20.9 °F 19.2 °F 72% 29.99 in 10.0 mi NW 5.8 mph - N/A   Overcast
10:56 PM 27.1 °F 23.2 °F 18.9 °F 71% 29.99 in 10.0 mi NNW 3.5 mph - N/A   Overcast
11:15 PM 26.6 °F 22.6 °F 19.4 °F 74% 29.99 in 10.0 mi NNW 3.5 mph - N/A   Overcast
11:36 PM 26.6 °F 21.2 °F 19.4 °F 74% 29.99 in 7.0 mi NW 4.6 mph - N/A   Overcast
11:56 PM 26.2 °F 20.7 °F 20.5 °F 79% 29.99 in 4.0 mi NW 4.6 mph - N/A Snow Light Snow